This is the latest recevied weather packets stored in our database for station/object KC3AWA. If no packets are shown the sender has not sent any weather packets the latest 10 day(s).
| Time | Temp. | Humidity | Pressure | Rain* | Wind** | Luminosity | Snow |
|---|---|---|---|---|---|---|---|
| 1777546865 | 5.56° C | 97% | 1011.3 hPa | 0 mm | - | 15 W/m² | - |
| 1777546561 | 5.56° C | 97% | 1010.9 hPa | 0 mm | - | 9 W/m² | - |
| 1777546258 | 5.56° C | 97% | 1011 hPa | 0 mm | - | 8 W/m² | - |
| 1777545955 | 5.56° C | 97% | 1011 hPa | 0 mm | - | 7 W/m² | - |
| 1777545651 | 5.56° C | 97% | 1010.8 hPa | 1.27 mm | - | 5 W/m² | - |
| 1777545349 | 5.56° C | 97% | 1010.9 hPa | 1.27 mm | - | 4 W/m² | - |
| 1777545046 | 6.11° C | 97% | 1010.9 hPa | 0 mm | - | 3 W/m² | - |
| 1777544743 | 6.11° C | 97% | 1010.8 hPa | 0 mm | - | 2 W/m² | - |
| 1777544438 | 6.11° C | 97% | 1010.8 hPa | 1.78 mm | - | 1 W/m² | - |
| 1777544134 | 6.11° C | 97% | 1010.8 hPa | 1.78 mm | - | 0 W/m² | - |
| 1777543832 | 6.11° C | 97% | 1010.7 hPa | 0 mm | - | 0 W/m² | - |
| 1777543528 | 6.11° C | 97% | 1010.7 hPa | 1.27 mm | - | 0 W/m² | - |
| 1777543225 | 6.11° C | 97% | 1010.6 hPa | 3.05 mm | - | 0 W/m² | - |
| 1777542920 | 6.11° C | 97% | 1010.7 hPa | 4.83 mm | - | 0 W/m² | - |
| 1777542617 | 6.67° C | 97% | 1010.6 hPa | 4.32 mm | - | 0 W/m² | - |
| 1777542313 | 6.67° C | 97% | 1010.6 hPa | 3.05 mm | - | 0 W/m² | - |
| 1777542011 | 6.67° C | 97% | 1010.7 hPa | 3.05 mm | - | 0 W/m² | - |
| 1777541708 | 6.67° C | 97% | 1010.6 hPa | 1.27 mm | - | 0 W/m² | - |
| 1777541405 | 6.67° C | 97% | 1010.8 hPa | 0 mm | - | 0 W/m² | - |
| 1777541100 | 6.67° C | 97% | 1010.6 hPa | 0 mm | - | 0 W/m² | - |
| 1777540798 | 6.67° C | 97% | 1010.6 hPa | 0 mm | - | 0 W/m² | - |
| 1777540495 | 6.67° C | 97% | 1010.4 hPa | 0 mm | - | 0 W/m² | - |
| 1777540191 | 6.67° C | 97% | 1010.3 hPa | 1.78 mm | - | 0 W/m² | - |
| 1777539892 | 6.67° C | 97% | 1010.6 hPa | 1.78 mm | - | 0 W/m² | - |
| 1777539589 | 6.67° C | 96% | 1010.4 hPa | 0 mm | - | 0 W/m² | - |
* Rain latest hour (hover to see other rain measurements)
** Current wind speed in m/s (hover to see current wind gust speed)